TimeEET,TemperatureF,Dew PointF,Humidity,Sea Level PressureIn,VisibilityMPH,Wind Direction,Wind SpeedMPH,Gust SpeedMPH,PrecipitationIn,Events,Conditions,WindDirDegrees,DateUTC
12:20 AM,35.6,30.2,81,29.95,6.2,SW,9.2,-,N/A,,Scattered Clouds,230,2013-01-25 22:20:00
12:50 AM,35.6,30.2,81,29.95,6.2,SSW,9.2,-,N/A,,Mostly Cloudy,210,2013-01-25 22:50:00
1:20 AM,35.6,30.2,81,29.95,6.2,SSW,6.9,-,N/A,,Mostly Cloudy,210,2013-01-25 23:20:00
1:50 AM,35.6,28.4,75,29.95,6.2,SW,8.1,-,N/A,,Mostly Cloudy,220,2013-01-25 23:50:00
2:00 AM,36,29,65,,12,SW,8.1,,,,Partly Cloudy,230,2013-01-26 00:00:00
2:20 AM,35.6,28.4,75,29.98,6.2,SW,9.2,-,N/A,,Mostly Cloudy,230,2013-01-26 00:20:00
2:50 AM,35.6,28.4,75,29.98,6.2,WSW,9.2,-,N/A,,Mostly Cloudy,250,2013-01-26 00:50:00
3:20 AM,33.8,28.4,81,29.98,6.2,West,10.4,-,N/A,,Mostly Cloudy,270,2013-01-26 01:20:00
3:50 AM,35.6,28.4,75,29.98,6.2,SW,8.1,-,N/A,,Mostly Cloudy,230,2013-01-26 01:50:00
4:20 AM,35.6,28.4,75,29.98,6.2,SW,6.9,-,N/A,,Mostly Cloudy,230,2013-01-26 02:20:00
4:50 AM,33.8,28.4,81,29.98,6.2,West,12.7,-,N/A,,Mostly Cloudy,260,2013-01-26 02:50:00
5:20 AM,35.6,28.4,75,29.98,6.2,West,9.2,-,N/A,,Mostly Cloudy,260,2013-01-26 03:20:00
5:50 AM,35.6,28.4,75,30.01,6.2,West,8.1,-,N/A,,Mostly Cloudy,280,2013-01-26 03:50:00
6:20 AM,35.6,28.4,75,30.01,6.2,West,10.4,-,N/A,,Mostly Cloudy,260,2013-01-26 04:20:00
6:50 AM,35.6,26.6,70,30.01,6.2,WSW,10.4,-,N/A,,Mostly Cloudy,240,2013-01-26 04:50:00
7:20 AM,33.8,26.6,75,30.01,6.2,WSW,12.7,-,N/A,,Mostly Cloudy,250,2013-01-26 05:20:00
7:50 AM,33.8,28.4,81,30.01,6.2,WSW,15.0,-,N/A,,Mostly Cloudy,250,2013-01-26 05:50:00
8:00 AM,34,28,69,,12,WSW,15.0,,,,Partly Cloudy,250,2013-01-26 06:00:00
8:20 AM,35.6,28.4,75,30.01,6.2,West,15.0,-,N/A,,Mostly Cloudy,260,2013-01-26 06:20:00
8:50 AM,35.6,28.4,75,30.04,6.2,West,13.8,-,N/A,,Mostly Cloudy,260,2013-01-26 06:50:00
9:20 AM,37.4,28.4,70,30.04,6.2,WSW,16.1,-,N/A,,Mostly Cloudy,250,2013-01-26 07:20:00
9:50 AM,35.6,28.4,75,30.04,6.2,West,11.5,-,N/A,,Mostly Cloudy,260,2013-01-26 07:50:00
10:20 AM,37.4,28.4,70,30.04,6.2,West,13.8,-,N/A,,Mostly Cloudy,270,2013-01-26 08:20:00
10:50 AM,37.4,28.4,70,30.04,6.2,West,10.4,-,N/A,,Mostly Cloudy,270,2013-01-26 08:50:00
11:20 AM,37.4,28.4,70,30.04,6.2,West,10.4,-,N/A,,Mostly Cloudy,280,2013-01-26 09:20:00
11:50 AM,37.4,28.4,70,30.04,6.2,West,10.4,-,N/A,,Mostly Cloudy,270,2013-01-26 09:50:00
12:20 PM,37.4,28.4,70,30.04,6.2,West,10.4,-,N/A,,Mostly Cloudy,260,2013-01-26 10:20:00
12:50 PM,37.4,30.2,75,30.04,6.2,WSW,11.5,-,N/A,,Mostly Cloudy,250,2013-01-26 10:50:00
1:20 PM,37.4,30.2,75,30.01,6.2,WSW,10.4,-,N/A,,Mostly Cloudy,250,2013-01-26 11:20:00
1:50 PM,37.4,30.2,75,30.01,6.2,WSW,13.8,-,N/A,,Mostly Cloudy,240,2013-01-26 11:50:00
2:00 PM,38,29,60,,12,WSW,13.8,,,,Partly Cloudy,240,2013-01-26 12:00:00
2:20 PM,37.4,28.4,70,30.04,6.2,SW,11.5,-,N/A,,Mostly Cloudy,220,2013-01-26 12:20:00
2:50 PM,37.4,28.4,70,30.04,6.2,SW,10.4,-,N/A,,Mostly Cloudy,230,2013-01-26 12:50:00
3:20 PM,37.4,28.4,70,30.04,6.2,West,6.9,-,N/A,,Mostly Cloudy,260,2013-01-26 13:20:00
3:50 PM,37.4,28.4,70,30.04,6.2,SW,9.2,-,N/A,,Mostly Cloudy,230,2013-01-26 13:50:00
4:20 PM,37.4,28.4,70,30.04,6.2,SW,8.1,-,N/A,,Mostly Cloudy,220,2013-01-26 14:20:00
4:50 PM,35.6,26.6,70,30.04,6.2,SSW,5.8,-,N/A,,Mostly Cloudy,210,2013-01-26 14:50:00
5:20 PM,35.6,26.6,70,30.04,6.2,SW,8.1,-,N/A,,Mostly Cloudy,220,2013-01-26 15:20:00
5:50 PM,37.4,26.6,65,30.04,6.2,SSW,12.7,-,N/A,,Mostly Cloudy,210,2013-01-26 15:50:00
6:20 PM,35.6,26.6,70,30.06,6.2,SSW,9.2,-,N/A,,Mostly Cloudy,210,2013-01-26 16:20:00
6:50 PM,35.6,26.6,70,30.06,6.2,SSW,9.2,-,N/A,,Mostly Cloudy,200,2013-01-26 16:50:00
7:20 PM,37.4,24.8,60,30.06,6.2,South,15.0,-,N/A,,Mostly Cloudy,190,2013-01-26 17:20:00
7:50 PM,37.4,26.6,65,30.06,6.2,SW,9.2,-,N/A,,Mostly Cloudy,230,2013-01-26 17:50:00
8:00 PM,37,25,50,,6,SW,9.2,,,,Partly Cloudy,230,2013-01-26 18:00:00
8:20 PM,35.6,26.6,70,30.06,6.2,SW,4.6,-,N/A,,Mostly Cloudy,230,2013-01-26 18:20:00
8:50 PM,37.4,26.6,65,30.06,6.2,WSW,6.9,-,N/A,,Mostly Cloudy,250,2013-01-26 18:50:00
9:20 PM,37.4,26.6,65,30.06,6.2,SW,9.2,-,N/A,,Mostly Cloudy,230,2013-01-26 19:20:00
9:50 PM,37.4,26.6,65,30.04,6.2,WSW,5.8,-,N/A,,Mostly Cloudy,240,2013-01-26 19:50:00
10:20 PM,37.4,26.6,65,30.04,6.2,SW,4.6,-,N/A,,Mostly Cloudy,230,2013-01-26 20:20:00
10:50 PM,35.6,26.6,70,30.04,6.2,Variable,4.6,-,N/A,,Mostly Cloudy,0,2013-01-26 20:50:00
11:20 PM,39.2,26.6,61,30.04,6.2,SW,9.2,-,N/A,,Mostly Cloudy,230,2013-01-26 21:20:00
11:50 PM,35.6,26.6,70,30.04,6.2,SSE,3.5,-,N/A,,Mostly Cloudy,160,2013-01-26 21:50:00